Back to catalog

SUPERBIRD C

AliveCommunicationsGEO
NORAD 24880·PAYLOAD·🇯🇵 Japan

Launched Jul 28, 1997 from Cape Canaveral Space Force Station

Loading…

TLE

FreshSource: Space-Track

Epoch: Sep 13, 2026, 01:44 UTC

1 24880U 97036A   26256.07290655 -.00000112  00000-0  00000-0 0  9997
2 24880  12.2173  33.1189 0004997 334.9068  25.1130  0.99073933 65744

Track SUPERBIRD C in real time with AllMySat

Download on the App Store